{"data":{"norad_id":65059,"epoch":"2026-09-20T22:00:03.000096Z","epoch_age_seconds":84846,"freshness":"FRESH","line1":"1 65059U 25165D   26263.91670139 -.00032359  00000+0 -10040-2 0  9999","line2":"2 65059  97.2853 335.0826 0001402  87.2206 353.5384 15.33454910  5797","mean_motion":15.3345491,"eccentricity":0.0001402,"inclination_deg":97.2853,"raan_deg":335.0826,"arg_perigee_deg":87.2206,"mean_anomaly_deg":353.5384,"bstar":-0.001004,"rev_number":579,"period_min":93.90559778507,"perigee_km":464.55420962254,"apogee_km":466.47316927586,"semimajor_km":6843.6506894492,"source":"CELESTRAK","updated_at":"2026-09-21T09:00:35.498329Z"}}